Wind_Speed
10 9 8 8 11 15 13 14 17 15 17 21 24 38 34 34 43 46 45 46 44 40 36 32 31 25 19 16 13 11 10 8
7 7 6 6 10 14 3 19 17 16 18 24 19 27 34 38 40 50 52 51 50 43 40 35 33 24 16 17 15 13 12 12
7 6 5 3 7 11 2 20 14 18 18 13 19 26 34 36 40 42 49 47 47 44 43 37 32 24 19 16 15 14 14 12
9 5 4 2 3 6 6 14 16 18 20 20 20 25 24 35 39 41 36 37 42 42 39 36 30 25 18 18 19 19 17 17
9 5 5 5 2 2 4 6 6 13 19 26 22 26 27 30 35 37 36 36 42 38 41 39 33 28 22 19 22 21 21 21
12 7 7 6 6 6 6 7 5 6 10 13 23 21 27 33 36 36 37 34 28 26 35 35 30 27 20 23 25 24 25 26
12 13 10 9 8 8 8 9 8 5 5 9 11 24 31 32 28 28 24 27 27 27 28 30 29 24 25 23 26 27 27 31
15 16 14 9 8 9 11 11 10 9 7 8 10 14 19 24 24 24 24 25 31 30 26 25 25 28 31 28 33 27 30 34
13 15 15 11 9 10 10 12 12 11 11 9 10 11 12 15 17 19 21 22 23 25 28 32 34 33 32 34 37 33 36 39
17 17 16 12 11 10 9 10 12 13 14 14 12 13 14 15 17 20 21 23 24 28 31 31 33 37 39 40 40 40 40 41
15 18 17 14 13 12 12 12 13 15 16 16 16 16 16 17 18 18 20 22 25 28 30 32 35 38 40 42 43 42 43 43
14 18 18 17 17 17 16 15 17 16 19 19 19 19 19 21 22 22 23 25 27 29 29 32 37 40 42 45 46 46 46 45
12 15 18 19 21 22 22 22 22 19 18 16 18 21 24 23 21 22 23 28 30 31 34 37 38 41 44 39 39 45 51 51
14 15 16 13 12 15 22 26 25 23 22 21 24 23 24 25 25 32 30 29 32 33 38 38 39 34 34 32 34 32 28 45
17 17 16 12 10 11 12 16 19 21 22 21 25 28 27 25 26 28 30 28 27 36 37 39 45 41 33 28 26 22 15 20
15 20 20 16 15 13 12 8 11 15 17 17 18 23 27 25 29 26 29 35 28 28 31 37 44 35 32 30 34 36 34 36
20 24 21 19 19 17 18 15 12 14 15 14 14 17 22 23 28 27 29 28 29 30 30 31 30 35 34 37 38 40 39 38
21 27 28 23 23 20 19 19 18 15 12 12 16 18 17 18 22 26 30 30 27 28 30 30 30 28 32 38 41 40 41 40
26 28 33 33 31 26 25 24 24 21 16 16 16 19 20 21 21 25 28 30 29 30 31 32 34 35 35 36 38 41 43 45
Wind_Direction
311 310 313 313 324 331 308 185 200 195 180 180 179 186 193 192 183 178 185 189 186 189 204 214 184 186 169 171 196 212 205 204
291 292 288 311 328 342 306 191 197 190 196 186 190 191 183 197 200 187 193 195 194 204 201 186 183 177 173 184 197 215 217 222
266 289 250 285 333 1 109 174 194 178 182 188 201 189 197 202 205 204 202 206 197 203 195 196 189 177 185 198 214 222 231 238
264 265 204 211 337 14 72 200 225 210 205 202 195 205 197 203 203 214 209 200 198 202 194 195 197 191 193 211 223 225 232 242
255 235 195 189 169 105 84 116 188 218 210 207 212 211 212 193 198 204 214 214 201 209 202 207 204 200 200 219 229 237 240 247
240 219 220 208 186 179 151 127 132 149 163 183 209 205 205 184 195 219 235 225 230 220 215 219 203 200 212 227 240 248 249 257
235 226 238 222 203 186 171 160 158 147 126 126 158 189 200 207 197 212 212 220 216 210 207 211 213 219 233 244 251 249 254 252
242 239 248 241 214 197 184 180 174 169 160 138 139 146 175 195 206 205 211 213 213 211 210 220 226 232 236 246 245 250 260 263
232 223 226 237 218 209 198 194 191 185 179 178 168 164 171 179 188 195 201 206 205 213 216 221 227 227 229 237 246 258 260 263
216 215 217 219 212 208 208 213 211 207 199 198 199 192 190 194 196 200 201 205 211 217 219 220 221 223 226 236 248 255 258 260
202 203 210 206 202 198 209 223 228 225 222 218 214 216 211 211 213 215 217 216 216 219 223 227 230 232 235 242 250 256 258 258
202 198 208 213 219 222 222 225 239 236 238 235 232 229 229 227 226 224 225 226 229 232 235 239 238 240 244 249 252 256 254 258
198 208 217 226 228 229 238 239 245 255 252 235 234 237 241 241 245 244 241 241 241 238 238 239 242 250 257 264 275 273 260 249
222 220 218 215 220 232 238 242 244 243 244 245 238 237 236 237 250 245 250 255 246 246 242 247 251 254 260 257 265 275 260 241
241 227 210 217 229 240 237 234 235 238 237 238 237 235 246 252 251 249 236 252 259 245 247 246 251 250 249 249 258 269 250 242
253 231 221 230 235 233 232 233 231 233 235 239 246 239 241 236 243 243 237 246 258 254 259 257 266 234 234 244 258 265 263 265
252 244 242 248 236 240 240 238 250 231 230 238 240 241 238 244 242 246 240 242 248 249 254 259 264 247 237 241 250 261 261 261
249 244 244 250 240 248 242 248 235 230 225 231 239 242 245 250 251 249 241 239 243 246 245 246 250 251 250 252 254 257 260 264
266 251 243 248 247 243 250 247 241 232 238 240 240 244 252 258 262 255 249 246 246 247 247 247 248 249 250 252 254 259 262 264
Height
3084 3083 3081 3079 3076 3072 3067 3070 3073 3076 3080 3084 3087 3090 3093 3095 3099 3106 3114 3118 3125 3130 3136 3142 3146 3149 3152 3157 3163 3165 3166 3167
3082 3081 3079 3077 3075 3071 3065 3070 3073 3076 3080 3083 3086 3090 3094 3097 3098 3103 3110 3116 3122 3128 3132 3136 3140 3147 3151 3154 3159 3161 3163 3165
3079 3079 3077 3075 3073 3071 3067 3070 3073 3077 3080 3083 3086 3090 3094 3097 3098 3102 3108 3114 3120 3124 3128 3134 3139 3143 3147 3152 3156 3157 3160 3160
3077 3076 3076 3075 3073 3072 3071 3072 3074 3075 3077 3081 3084 3087 3091 3095 3098 3100 3106 3111 3117 3122 3128 3133 3138 3142 3146 3150 3153 3155 3156 3157
3074 3073 3074 3074 3074 3074 3073 3072 3073 3075 3076 3078 3081 3084 3086 3090 3095 3100 3104 3108 3113 3120 3124 3129 3135 3139 3143 3146 3150 3152 3152 3153
3071 3071 3071 3073 3073 3074 3074 3073 3074 3075 3075 3075 3077 3081 3084 3089 3095 3098 3101 3105 3110 3116 3120 3124 3129 3133 3138 3144 3146 3146 3148 3147
3067 3068 3069 3071 3072 3073 3074 3074 3074 3075 3075 3075 3075 3077 3082 3088 3091 3096 3100 3103 3107 3111 3115 3120 3126 3129 3134 3137 3141 3140 3142 3141
3063 3064 3066 3068 3070 3071 3073 3074 3075 3076 3077 3077 3077 3077 3080 3085 3088 3091 3094 3098 3102 3107 3111 3116 3121 3126 3129 3131 3133 3133 3134 3133
3057 3060 3063 3065 3068 3070 3071 3073 3075 3076 3078 3079 3080 3081 3082 3085 3087 3090 3093 3097 3101 3105 3108 3111 3116 3120 3123 3126 3127 3127 3128 3127
3051 3055 3059 3062 3064 3067 3069 3071 3073 3075 3076 3078 3080 3082 3083 3085 3087 3090 3092 3095 3098 3101 3104 3107 3111 3114 3116 3118 3119 3120 3119 3119
3047 3050 3054 3059 3061 3063 3065 3067 3070 3072 3074 3076 3078 3080 3082 3084 3086 3088 3090 3092 3094 3097 3100 3103 3105 3108 3109 3110 3111 3112 3110 3111
3044 3047 3050 3054 3057 3060 3061 3063 3065 3067 3069 3072 3074 3076 3077 3079 3082 3084 3087 3089 3092 3094 3096 3097 3098 3100 3102 3102 3102 3102 3101 3101
3043 3045 3047 3049 3051 3053 3056 3058 3060 3062 3065 3067 3068 3070 3073 3075 3078 3082 3083 3085 3087 3088 3089 3090 3092 3093 3093 3090 3091 3091 3088 3090
3041 3042 3044 3045 3047 3048 3049 3051 3053 3055 3057 3060 3062 3063 3064 3067 3070 3073 3075 3077 3079 3081 3081 3083 3085 3085 3084 3084 3084 3076 3070 3076
3037 3038 3040 3041 3042 3044 3044 3044 3045 3048 3050 3052 3053 3056 3059 3061 3063 3064 3067 3068 3070 3072 3073 3072 3072 3074 3075 3076 3076 3075 3072 3073
3031 3033 3035 3037 3038 3039 3040 3041 3040 3041 3043 3044 3046 3048 3050 3051 3054 3056 3058 3059 3061 3063 3063 3063 3060 3060 3064 3067 3069 3069 3068 3068
3024 3026 3028 3030 3032 3033 3035 3036 3037 3037 3038 3039 3040 3041 3042 3043 3045 3047 3049 3051 3052 3053 3053 3054 3052 3053 3055 3058 3060 3060 3059 3058
3017 3018 3019 3022 3025 3027 3029 3030 3031 3032 3033 3034 3035 3036 3036 3037 3038 3039 3041 3042 3044 3045 3045 3046 3047 3047 3049 3050 3050 3050 3049 3049
3009 3010 3012 3014 3016 3018 3021 3022 3025 3026 3026 3028 3029 3030 3030 3031 3031 3031 3032 3034 3036 3036 3036 3037 3038 3039 3040 3040 3040 3039 3039 3038